World > North America > United States > Indiana

Hobart, Indiana Regional Weather

Lat: 41.53N, Lon: 87.27W
Wx Zone: INZ001
Warning FLW WEATHER ALERT - (More Info. Click Here) Warning
Feedback

Hobart, IN Regional Weather

Expires:201908241200;;130723
ASUS43 KIND 241109
RWRIN 

WEATHER ROUNDUP FOR INDIANA
NATIONAL WEATHER SERVICE INDIANAPOLIS IN
700 AM EDT SAT AUG 24 2019

NOTE: "FAIR" INDICATES FEW OR NO CLOUDS BELOW 12,000 FEET WITH NO
SIGNIFICANT WEATHER AND/OR OBSTRUCTIONS TO VISIBILITY.

* - STATION DOES NOT REPORT WEATHER SUCH AS PRECIPITATION OR FOG.

+ - STATION NOT QUALITY CONTROLLED BY THE NATIONAL WEATHER SERVICE.
    USE DATA WITH CAUTION...ESPECIALLY DEWPOINT AND RELATIVE
    HUMIDITY OBSERVATIONS.


INZ001>003-010>013-019-020-241200-
NORTHWEST INDIANA
  
CITY           SKY/WX    TMP DP  RH WIND       PRES   REMARKS
GARY /AIRPORT/ PTCLDY    61  54  77 SE8       30.27R                  
KNOX *+        FAIR      48  46  93 CALM      30.27S                  
LA PORTE +     FAIR      51  49  94 E3        30.29S                  
MICHIGAN CITY+ FAIR      55  52  88 CALM      30.29R                  
MONTICELLO +   FAIR      55  52  89 NE5       30.25R                  
RENSSELAER +   FAIR      52  52 100 NE3       30.27R                  
VALPARAISO     FAIR      54  50  86 NE5       30.28S                  

$$


SKY/WX - Weather  TMP - Temperature  DP - Dew Point  RH - Relative Humidity
WIND - Wind Direction/Speed PRES - Barometric Pressure VSB - Visibility
WCI - Wind Chill Index E13G22 Wind - East Wind 13 mph/Gusts of 22 mph